Вернуться в каталог

ONEWEB-0711

АктивенСвязьPO
NORAD 55174·PAYLOAD·🇬🇧 United Kingdom

Запущен Jan 10, 2023 с Cape Canaveral Space Force Station

Loading…

Ближайшие Пролёты (ближайшие 24 часа)

TLE

СвежийSource: CelesTrak SupGP

Эпоха: Sep 14, 2026, 14:50 UTC

1 55174C 23004AL  26257.61822176  .00002887  00000+0  81558-2 0  2576
2 55174  87.8974   3.2863 0001974 123.6172 344.4523 13.11412980    18

Отслеживайте ONEWEB-0711 в реальном времени с AllMySat

Download on the App Store